[[{"header":{"parameterUnit":"m.s-1","parameterCategory":1,"la1":30.2991,"la2":30.254,"lo1":-89.0895,"lo2":-89.0444,"dy":0.0017,"dx":0.0017,"nx":28,"ny":28,"refTime":"2025-02-25T09:00:00:Z","depth":0,"parameterNumber":2,"parameterNumberName":"U-component_of_WINDS"},"data":[0,0,0,0,0,0,0,0,0,0,0,0,0,0,0,0,0,0,0,0,0,0,0,0,0,0,0,0,0,0,0,0,0,0,0,0,0,0,0,0,0,0,0,0,0,0,0,0,0,0,0,0,0,0,0,0,0,0,1.0211,1.0211,0,1.0193,1.0193,1.0193,1.0139,1.0137,1.0136,1.0135,1.0117,1.0118,1.0118,0,0,0,0,0,0,0,0,0,0,0,0,0,1.02,1.02,1.0211,1.0211,1.0211,1.0193,1.0193,1.0193,1.0139,1.0137,1.0136,1.0135,1.0117,1.0118,1.0118,0,0,0,0,0,0,0,0,0,0,0,0,0,1.0195,1.02,1.0211,1.0182,1.0179,1.0193,1.0193,1.0192,1.0139,1.0137,1.0136,1.0134,1.0117,1.0118,1.0119,1.016,0,0,1.0121,1.0122,0,0,0,0,0,0,0,0,1.0196,1.0196,1.0187,1.0184,1.0181,1.0166,1.0182,1.0182,1.014,1.0154,1.0135,1.0133,1.0135,1.0134,1.0135,1.0159,1.0158,1.0122,1.0122,1.0123,1.0123,0,0,0,0,0,0,0,1.0196,1.0196,1.0204,1.0186,1.0183,1.0169,1.0167,1.0182,1.0155,1.0153,1.0149,1.0148,1.0133,1.0134,1.0134,1.0158,1.0122,1.0122,1.0123,1.0123,1.0213,1.0214,0,0,0,0,0,0,1.0201,1.0197,1.0205,1.0204,1.0184,1.0171,1.0168,1.0173,1.0155,1.015,1.0149,1.0145,1.0133,1.0133,1.0133,1.0179,1.0122,1.0123,1.0124,1.0211,1.0213,1.0215,0,0,0,0,0,0,1.02,1.0202,1.0205,1.0199,1.0199,1.0173,1.0179,1.0173,1.0174,1.0152,1.0147,1.0155,1.0132,1.0132,1.0153,1.0177,1.0124,1.0125,1.0209,1.0212,1.0214,1.0271,0,0,0,0,0,0,1.02,1.0202,1.0218,1.02,1.0199,1.0226,1.018,1.0174,1.0176,1.017,1.0156,1.0152,1.0131,1.0152,1.0154,1.0178,1.0125,1.0207,1.021,1.0213,1.0267,1.0276,1.0283,0,0,0,0,0,1.02,1.0235,1.0219,1.022,1.0218,1.0228,1.0227,1.0202,1.0178,1.0193,1.0178,1.0152,1.0175,1.0155,1.0156,1.0181,1.0205,1.0209,1.0213,1.0264,1.0274,1.0283,0,0,0,0,0,0,1.0257,1.0232,1.0214,1.0244,1.0238,1.0218,1.0237,1.0214,1.0215,1.021,1.0179,1.0176,1.0201,1.0193,1.0171,1.0219,1.0185,1.019,1.0223,1.0233,1.0241,1.0242,1.0126,0,0,0,0,0,1.0274,1.0283,1.0261,1.029,1.0288,1.0263,1.0266,1.0247,1.024,1.0237,1.0224,1.0218,1.0223,1.0228,1.0232,1.0266,1.0261,1.0283,1.0291,1.0298,1.0302,1.0318,1.0327,1.0229,1.0229,1.0228,0,0,1.0307,1.0295,1.0303,1.0301,1.0294,1.0304,1.0261,1.0275,1.0282,1.0239,1.0258,1.0248,1.0239,1.0267,1.0278,1.0261,1.0328,1.0303,1.0309,1.0309,1.0323,1.0332,1.0341,1.0231,1.0231,1.023,0,0,1.0373,1.0365,1.0388,1.0381,1.0371,1.0354,1.0359,1.0343,1.0334,1.0352,1.032,1.0328,1.0339,1.0333,1.0331,1.0393,1.0369,1.0396,1.0437,1.0453,1.046,1.0467,1.0488,1.0496,1.04,1.04,1.04,0,1.0416,1.0431,1.0402,1.0417,1.0416,1.0377,1.0399,1.0395,1.0387,1.0387,1.0368,1.0378,1.037,1.0395,1.041,1.041,1.0415,1.0397,1.0462,1.0468,1.0474,1.0493,1.0501,1.0403,1.0403,1.0403,1.0402,0,1.0483,1.0494,1.0513,1.0505,1.0507,1.0525,1.0499,1.0504,1.0484,1.0469,1.0488,1.0476,1.0476,1.048,1.0462,1.0502,1.0491,1.0467,1.0433,1.0487,1.0505,1.0512,1.0408,1.0407,1.0406,1.0405,0,0,1.0586,1.0561,1.0568,1.0563,1.0548,1.0556,1.0572,1.0571,1.0575,1.0571,1.0583,1.0592,1.0569,1.0567,1.0547,1.0561,1.0609,1.0535,1.0534,1.0548,1.0651,1.0668,1.0678,1.0593,1.0594,1.0595,1.0651,0,1.0648,1.0673,1.0648,1.0678,1.0687,1.0649,1.0663,1.0655,1.0641,1.0646,1.063,1.0636,1.0606,1.0605,1.0617,1.0601,1.0629,1.0597,1.0603,1.0603,1.0606,1.0687,1.0706,1.076,1.0658,1.0659,1.066,0,1.0723,1.0721,1.0753,1.0734,1.0736,1.0749,1.0745,1.0751,1.074,1.0729,1.0726,1.0702,1.0715,1.0682,1.0699,1.0678,1.0679,1.0671,1.0672,1.0672,1.0635,1.0688,1.0776,1.0784,1.0671,1.067,1.0669,0,1.0794,1.0799,1.0817,1.0815,1.0794,1.0803,1.0795,1.0783,1.0783,1.078,1.078,1.0779,1.0778,1.0777,1.0752,1.073,1.0772,1.0737,1.0762,1.0763,1.0773,1.0772,1.0862,1.0775,1.0775,1.0775,1.0775,0,1.0865,1.0886,1.0848,1.086,1.0881,1.0851,1.0873,1.0861,1.085,1.0858,1.0826,1.0834,1.0801,1.0805,1.0786,1.0803,1.0803,1.0794,1.0788,1.0796,1.0797,1.0796,1.0791,1.0777,1.0776,1.0776,1.0776,0,1.0947,1.0923,1.0941,1.0919,1.0914,1.0931,1.0912,1.0921,1.0904,1.0915,1.0915,1.0889,1.0893,1.0868,1.0867,1.0854,1.0879,1.0868,1.0883,1.0879,1.0905,1.0902,1.0996,1.1007,1.0914,1.0915,1.0916,0,1.0994,1.1009,1.0988,1.099,1.0983,1.0989,1.0989,1.0959,1.096,1.0948,1.0959,1.096,1.0958,1.0965,1.0946,1.0945,1.0932,1.0965,1.0932,1.0939,1.0931,1.093,1.0931,1.0972,1.0973,1.0974,1.0975,0,1.1079,1.1066,1.1067,1.1064,1.1064,1.1061,1.1055,1.1059,1.1026,1.1029,1.1032,1.1031,1.1029,1.1029,1.1024,1.1015,1.0989,1.0986,1.0991,1.0999,1.1007,1.1001,1.0901,1.0984,1.0983,1.0982,1.0982,1.0981,1.1144,1.1155,1.1141,1.1143,1.1135,1.113,1.1137,1.112,1.1122,1.1118,1.11,1.1105,1.1093,1.1082,1.1076,1.1079,1.1063,1.1071,1.1073,1.1076,1.108,1.1007,1.1078,1.1078,1.1077,1.1077,1.1077,0,1.1227,1.1216,1.1218,1.1209,1.121,1.1186,1.1177,1.118,1.1185,1.1175,1.1174,1.1176,1.1176,1.1156,1.1153,1.116,1.1148,1.116,1.1158,1.1156,1.1095,1.109,1.1169,1.1169,1.1169,1.1169,1.1169,1.1169,1.127,1.1285,1.1271,1.1282,1.127,1.1275,1.1272,1.1266,1.1258,1.1262,1.1261,1.1248,1.1234,1.1229,1.1227,1.1221,1.1221,1.1237,1.1227,1.117,1.1161,1.1153,1.1147,1.1238,1.1238,1.1288,1.1289,1.1289]},{"header":{"parameterUnit":"m.s-1","parameterCategory":1,"la1":30.2991,"la2":30.254,"lo1":-89.0895,"lo2":-89.0444,"dy":0.0017,"dx":0.0017,"nx":28,"ny":28,"refTime":"2025-02-25T09:00:00:Z","depth":0,"parameterNumber":3,"parameterNumberName":"V-component_of_WINDS"},"data":[0,0,0,0,0,0,0,0,0,0,0,0,0,0,0,0,0,0,0,0,0,0,0,0,0,0,0,0,0,0,0,0,0,0,0,0,0,0,0,0,0,0,0,0,0,0,0,0,0,0,0,0,0,0,0,0,0,0,-0.7227,-0.7228,0,-0.7354,-0.7355,-0.7356,-0.7414,-0.7414,-0.7414,-0.7414,-0.7547,-0.7551,-0.7554,0,0,0,0,0,0,0,0,0,0,0,0,0,-0.704,-0.7044,-0.7227,-0.7229,-0.723,-0.7353,-0.7355,-0.7357,-0.7414,-0.7414,-0.7414,-0.7414,-0.7546,-0.755,-0.7555,0,0,0,0,0,0,0,0,0,0,0,0,0,-0.714,-0.7045,-0.7227,-0.7274,-0.7279,-0.7353,-0.7355,-0.7357,-0.7414,-0.7414,-0.7414,-0.7414,-0.7545,-0.755,-0.7555,-0.7593,0,0,-0.7572,-0.7574,0,0,0,0,0,0,0,0,-0.7134,-0.7147,-0.7265,-0.7271,-0.7277,-0.7368,-0.7338,-0.7437,-0.7414,-0.7363,-0.7414,-0.7414,-0.7488,-0.7498,-0.7522,-0.7599,-0.7605,-0.7573,-0.7576,-0.7578,-0.758,0,0,0,0,0,0,0,-0.7127,-0.7141,-0.7277,-0.7267,-0.7274,-0.729,-0.7304,-0.7357,-0.7425,-0.7368,-0.7372,-0.7386,-0.7491,-0.7517,-0.7526,-0.7607,-0.7572,-0.7577,-0.7581,-0.7583,-0.7725,-0.7725,0,0,0,0,0,0,-0.7112,-0.7135,-0.7273,-0.7281,-0.7203,-0.7294,-0.7309,-0.7339,-0.7425,-0.7438,-0.7386,-0.7388,-0.7508,-0.7519,-0.7531,-0.7583,-0.7578,-0.7583,-0.7587,-0.7725,-0.7725,-0.7726,0,0,0,0,0,0,-0.7108,-0.7124,-0.7268,-0.7209,-0.7229,-0.7297,-0.733,-0.7342,-0.7367,-0.7439,-0.7452,-0.74,-0.7508,-0.7523,-0.7578,-0.7588,-0.7586,-0.7591,-0.7724,-0.7725,-0.7725,-0.7686,0,0,0,0,0,0,-0.7102,-0.7122,-0.7135,-0.7209,-0.7232,-0.7311,-0.7331,-0.7344,-0.7376,-0.738,-0.7455,-0.7467,-0.7509,-0.7569,-0.7583,-0.7596,-0.7595,-0.7723,-0.7724,-0.7725,-0.7687,-0.7685,-0.7684,0,0,0,0,0,-0.7095,-0.7119,-0.7136,-0.7152,-0.725,-0.7311,-0.7325,-0.7371,-0.7377,-0.7392,-0.7439,-0.7465,-0.7585,-0.7574,-0.759,-0.7605,-0.7723,-0.7724,-0.7725,-0.7687,-0.7686,-0.7684,0,0,0,0,0,0,-0.7046,-0.713,-0.7149,-0.7197,-0.7247,-0.7321,-0.7342,-0.7368,-0.7417,-0.7419,-0.7476,-0.7493,-0.7543,-0.7579,-0.7566,-0.7648,-0.7656,-0.7661,-0.7622,-0.7621,-0.762,-0.761,-0.76,0,0,0,0,0,-0.704,-0.7081,-0.7153,-0.7189,-0.7213,-0.7273,-0.7301,-0.7333,-0.7387,-0.7409,-0.7459,-0.7511,-0.7562,-0.7593,-0.7643,-0.7692,-0.7711,-0.771,-0.7709,-0.7708,-0.7711,-0.7743,-0.7744,-0.7729,-0.7729,-0.7729,0,0,-0.703,-0.7081,-0.7104,-0.7181,-0.7223,-0.7266,-0.729,-0.7335,-0.7368,-0.7416,-0.7471,-0.751,-0.7572,-0.7625,-0.7651,-0.7657,-0.7719,-0.7709,-0.7707,-0.7712,-0.7744,-0.7745,-0.7747,-0.773,-0.773,-0.773,0,0,-0.7033,-0.7075,-0.7111,-0.7152,-0.7216,-0.7256,-0.7264,-0.7335,-0.7363,-0.7418,-0.7456,-0.7498,-0.7581,-0.7625,-0.7659,-0.7681,-0.7708,-0.7696,-0.7689,-0.7719,-0.7721,-0.7722,-0.7732,-0.7735,-0.7699,-0.7698,-0.7698,0,-0.7013,-0.7078,-0.7126,-0.7169,-0.7203,-0.7248,-0.7286,-0.7324,-0.7401,-0.7424,-0.743,-0.7538,-0.7583,-0.7648,-0.7654,-0.7678,-0.7692,-0.7688,-0.7716,-0.7718,-0.772,-0.7731,-0.7734,-0.7697,-0.7697,-0.7697,-0.7697,0,-0.7051,-0.7096,-0.7117,-0.719,-0.7226,-0.7266,-0.7322,-0.7354,-0.7383,-0.7423,-0.7481,-0.7537,-0.76,-0.7617,-0.7646,-0.7687,-0.769,-0.7705,-0.7715,-0.7719,-0.773,-0.7734,-0.7694,-0.7695,-0.7695,-0.7696,0,0,-0.7026,-0.7125,-0.7133,-0.7167,-0.7241,-0.7278,-0.7321,-0.7382,-0.7409,-0.7461,-0.75,-0.7571,-0.7587,-0.7624,-0.7659,-0.7685,-0.7702,-0.7698,-0.77,-0.7698,-0.7754,-0.7743,-0.7747,-0.772,-0.7721,-0.7722,-0.775,0,-0.7041,-0.7119,-0.7165,-0.7225,-0.7269,-0.7313,-0.7351,-0.7402,-0.7441,-0.7486,-0.7529,-0.758,-0.7595,-0.7618,-0.7646,-0.7694,-0.7714,-0.7692,-0.776,-0.7761,-0.7744,-0.7752,-0.774,-0.7764,-0.7754,-0.7755,-0.7755,0,-0.7068,-0.7119,-0.7183,-0.7255,-0.7275,-0.7308,-0.7369,-0.741,-0.747,-0.7497,-0.7539,-0.7574,-0.7624,-0.763,-0.7701,-0.7685,-0.7715,-0.7743,-0.7746,-0.7755,-0.7759,-0.7763,-0.7772,-0.7776,-0.7762,-0.7761,-0.7761,0,-0.7046,-0.7131,-0.7181,-0.7209,-0.7293,-0.7316,-0.7352,-0.7411,-0.7445,-0.7499,-0.7523,-0.7581,-0.7614,-0.766,-0.7711,-0.7709,-0.7778,-0.7787,-0.7804,-0.7803,-0.7817,-0.7816,-0.7832,-0.7833,-0.7833,-0.7833,-0.7833,0,-0.7059,-0.7097,-0.7172,-0.7203,-0.7249,-0.7302,-0.7346,-0.7386,-0.7438,-0.748,-0.7522,-0.756,-0.7624,-0.7671,-0.7711,-0.7765,-0.7779,-0.7804,-0.7814,-0.7801,-0.7798,-0.7823,-0.7823,-0.7834,-0.7834,-0.7834,-0.7834,0,-0.7042,-0.7093,-0.7151,-0.7226,-0.7246,-0.7276,-0.7342,-0.7375,-0.7416,-0.7468,-0.7484,-0.755,-0.7607,-0.7662,-0.7739,-0.7767,-0.7822,-0.7834,-0.7801,-0.7807,-0.7822,-0.782,-0.7856,-0.7865,-0.7858,-0.7858,-0.7858,0,-0.7047,-0.7077,-0.7156,-0.7186,-0.7221,-0.7269,-0.7305,-0.7359,-0.7395,-0.7467,-0.7492,-0.7552,-0.7603,-0.7694,-0.775,-0.781,-0.7826,-0.7834,-0.7835,-0.7821,-0.7828,-0.7827,-0.7831,-0.7833,-0.7833,-0.7833,-0.7833,0,-0.7051,-0.7076,-0.7125,-0.7184,-0.7225,-0.7274,-0.7324,-0.7347,-0.7412,-0.745,-0.7509,-0.7549,-0.7628,-0.7689,-0.7756,-0.7795,-0.7826,-0.7832,-0.7839,-0.7827,-0.7807,-0.782,-0.78,-0.7831,-0.7831,-0.7831,-0.7831,-0.7831,-0.7047,-0.7077,-0.7138,-0.7192,-0.7236,-0.7283,-0.7318,-0.7364,-0.7414,-0.7482,-0.7512,-0.7572,-0.7634,-0.7727,-0.7766,-0.7816,-0.7823,-0.7833,-0.7836,-0.7838,-0.7836,-0.7798,-0.7828,-0.7828,-0.7828,-0.7828,-0.7828,0,-0.7056,-0.7097,-0.7146,-0.7216,-0.7259,-0.7283,-0.7341,-0.7376,-0.7428,-0.7482,-0.7532,-0.7602,-0.7661,-0.7722,-0.7786,-0.7814,-0.783,-0.7829,-0.7828,-0.7838,-0.7825,-0.7813,-0.7815,-0.7815,-0.7815,-0.7815,-0.7815,-0.7815,-0.7065,-0.7118,-0.715,-0.7227,-0.7269,-0.7327,-0.7359,-0.7403,-0.7447,-0.7522,-0.7572,-0.7611,-0.7669,-0.7738,-0.7794,-0.7811,-0.7833,-0.7829,-0.785,-0.7837,-0.7838,-0.7839,-0.7828,-0.7833,-0.7833,-0.7859,-0.7859,-0.7859]}]]